Content
SEND FEEDBACK

Daily
Averages
Monthly
Summary
United States of America

HUGOTON, KANSAS


Home > North America > United States > Kansas
Elevation: 3111 feet     Latitude: 37 11N     Longitude: 101 21W

WEATHER
 
SELECT A DAY
Number of Records: 473,117;   Date Range: 1/1/95 - 12/19/14
 
SHARE

PRINT THIS DATA

[ ← Previous Day ]
WEATHER ALMANAC - FEBRUARY 13, 2013
[ Next Day → ]
[ °C ]   °F
Weather ElementAverageHighLow
Temperature32.7 °F50 °F (2:15 pm)19.4 °F (4:15 am)
Dewpoint19.1 °F26.6 °F (11:15 am)10.4 °F (6:55 am)
Humidity59.5 %80 % (10:15 pm)32 % (2:15 pm)
Barometer29.99 in30.04 in (8:35 am)29.93 in (5:55 pm)
Wind Speed9.6 mph13.8 mph (1:15 pm)
Wind Gust16.1 mph (2:15 pm)
Weather ElementAverage
Visibility10 mi
Wind DirectionWSW (262.8 °)

Weather ElementTotal
Precipitation---
Heating Degree Days30.3 (Base 65)
Averaged from 71 records on February 13, 2013
WEATHER CONDITIONS BREAKOUT
WIND DIRECTION BREAKOUT
WEATHER BY HOUR - FEBRUARY 13, 2013
[ °C ]   °F
Local TimeTemperatureDewpointHumidityBarometerVisibilityWind DirectionWind SpeedGust SpeedPrecipitationEventsConditions
12:35 AM26.6 °F19.4 °F74 %30.02 in10.0 miWest (280°)10.4 mphClear
12:55 AM26.6 °F17.6 °F69 %30.02 in10.0 miWNW (290°)12.7 mphClear
1:15 AM24.8 °F15.8 °F69 %30.03 in10.0 miNW (310°)11.5 mphClear
1:35 AM23.0 °F15.8 °F74 %30.02 in10.0 miNW (310°)10.4 mphClear
1:55 AM23.0 °F14.0 °F68 %30.03 in10.0 miNW (310°)9.2 mphClear
2:15 AM21.2 °F14.0 °F74 %30.02 in10.0 miWNW (300°)9.2 mphClear
2:35 AM21.2 °F12.2 °F68 %30.02 in10.0 miWNW (300°)8.1 mphClear
2:55 AM21.2 °F12.2 °F68 %30.02 in10.0 miWNW (300°)8.1 mphClear
3:15 AM21.2 °F12.2 °F68 %30.01 in10.0 miWNW (290°)10.4 mphClear
3:35 AM21.2 °F12.2 °F68 %30.01 in10.0 miWNW (300°)10.4 mphClear
3:55 AM21.2 °F12.2 °F68 %30.01 in10.0 miWNW (300°)10.4 mphClear
4:15 AM19.4 °F12.2 °F74 %30.01 in10.0 miWNW (300°)10.4 mphClear
4:35 AM21.2 °F12.2 °F68 %30.01 in10.0 miNW (310°)10.4 mphClear
4:55 AM21.2 °F12.2 °F68 %30.01 in10.0 miNW (310°)9.2 mphClear
5:15 AM21.2 °F12.2 °F68 %30.02 in10.0 miNW (310°)9.2 mphClear
5:35 AM21.2 °F12.2 °F68 %30.02 in10.0 miNW (320°)11.5 mphClear
5:55 AM21.2 °F12.2 °F68 %30.03 in10.0 miNNW (330°)10.4 mphClear
6:15 AM21.2 °F12.2 °F68 %30.02 in10.0 miNW (320°)11.5 mphClear
6:35 AM21.2 °F12.2 °F68 %30.01 in10.0 miNW (310°)8.1 mphClear
6:55 AM19.4 °F10.4 °F68 %30.01 in10.0 miWNW (300°)10.4 mphClear
7:15 AM19.4 °F10.4 °F68 %30.01 in10.0 miWNW (300°)9.2 mphClear
7:35 AM19.4 °F10.4 °F68 %30.01 in10.0 miWNW (300°)10.4 mphClear
7:55 AM19.4 °F12.2 °F74 %30.02 in10.0 miNW (310°)8.1 mphClear
8:15 AM21.2 °F12.2 °F68 %30.03 in10.0 miNW (310°)9.2 mphClear
8:35 AM24.8 °F15.8 °F69 %30.04 in10.0 miNW (320°)9.2 mphClear
8:55 AM26.6 °F15.8 °F64 %30.04 in10.0 miWNW (300°)9.2 mphClear
9:15 AM28.4 °F17.6 °F64 %30.04 in10.0 miNW (310°)9.2 mphClear
9:35 AM32.0 °F19.4 °F60 %30.03 in10.0 miNNW (330°)9.2 mphClear
9:55 AM33.8 °F21.2 °F60 %30.04 in10.0 miNW (320°)10.4 mphClear
10:15 AM35.6 °F23.0 °F60 %30.04 in10.0 miNNW (330°)4.6 mphClear
10:35 AM37.4 °F23.0 °F56 %30.04 in10.0 miNW (310°)5.8 mphClear
10:55 AM39.2 °F24.8 °F56 %30.04 in10.0 miWest (280°)3.5 mphClear
11:15 AM41.0 °F26.6 °F57 %30.03 in10.0 miWSW (250°)3.5 mphClear
11:35 AM42.8 °F26.6 °F53 %30.03 in10.0 miWSW (240°)4.6 mphClear
11:55 AM44.6 °F24.8 °F46 %30.02 in10.0 miWSW (250°)6.9 mphClear
12:15 PM46.4 °F26.6 °F46 %30.01 in10.0 miSSW (210°)8.1 mphClear
12:35 PM46.4 °F24.8 °F43 %30.00 in10.0 miSW (230°)8.1 mphClear
12:55 PM48.2 °F24.8 °F40 %29.99 in10.0 miWSW (240°)10.4 mphClear
1:15 PM48.2 °F24.8 °F40 %29.99 in10.0 miSW (230°)13.8 mphClear
1:35 PM48.2 °F24.8 °F40 %29.98 in10.0 miSSW (210°)8.1 mphClear
1:55 PM48.2 °F23.0 °F37 %29.97 in10.0 miSW (220°)11.5 mphClear
2:15 PM50.0 °F21.2 °F32 %29.96 in10.0 miWSW (240°)10.4 mph16.1 mphClear
2:35 PM50.0 °F23.0 °F35 %29.95 in10.0 miSW (220°)12.7 mphClear
2:55 PM50.0 °F24.8 °F37 %29.95 in10.0 miSSW (210°)13.8 mphClear
3:15 PM48.2 °F24.8 °F40 %29.95 in10.0 miSSW (200°)12.7 mphClear
3:35 PM48.2 °F23.0 °F37 %29.94 in10.0 miSSW (210°)13.8 mphClear
3:55 PM48.2 °F23.0 °F37 %29.94 in10.0 miSSW (200°)12.7 mphClear
4:15 PM46.4 °F21.2 °F37 %29.94 in10.0 miSSW (200°)11.5 mphClear
4:35 PM46.4 °F21.2 °F37 %29.94 in10.0 miSW (220°)12.7 mphClear
4:55 PM46.4 °F21.2 °F37 %29.94 in10.0 miSSW (210°)12.7 mphClear
5:15 PM44.6 °F23.0 °F43 %29.94 in10.0 miSSW (210°)11.5 mphClear
5:35 PM44.6 °F24.8 °F46 %29.94 in10.0 miSSW (200°)10.4 mphClear
5:55 PM42.8 °F23.0 °F46 %29.93 in10.0 miSSW (200°)9.2 mphClear
6:15 PM39.2 °F23.0 °F52 %29.94 in10.0 miSSW (210°)10.4 mphClear
6:35 PM37.4 °F21.2 °F52 %29.94 in10.0 miSSW (200°)9.2 mphClear
6:55 PM35.6 °F21.2 °F56 %29.94 in10.0 miSW (220°)8.1 mphClear
7:15 PM33.8 °F23.0 °F65 %29.95 in10.0 miSW (220°)10.4 mphClear
7:35 PM33.8 °F21.2 °F60 %29.95 in10.0 miWSW (240°)9.2 mphClear
7:55 PM32.0 °F21.2 °F64 %29.96 in10.0 miWSW (240°)8.1 mphClear
8:15 PM30.2 °F19.4 °F64 %29.96 in10.0 miWSW (240°)9.2 mphClear
8:35 PM30.2 °F21.2 °F69 %29.97 in10.0 miWSW (240°)10.4 mphClear
8:55 PM30.2 °F21.2 °F69 %29.96 in10.0 miWSW (240°)10.4 mphClear
9:15 PM30.2 °F21.2 °F69 %29.97 in10.0 miWSW (250°)9.2 mphClear
9:35 PM30.2 °F23.0 °F75 %29.97 in10.0 miWSW (240°)9.2 mphClear
9:55 PM28.4 °F21.2 °F74 %29.97 in10.0 miWSW (240°)10.4 mphClear
10:15 PM30.2 °F24.8 °F80 %29.97 in10.0 miSW (230°)8.1 mphClear
10:35 PM30.2 °F21.2 °F69 %29.98 in10.0 miWSW (240°)6.9 mphClear
10:55 PM28.4 °F21.2 °F74 %29.99 in10.0 miWSW (250°)5.8 mphClear
11:15 PM28.4 °F19.4 °F69 %29.99 in10.0 miWSW (240°)8.1 mphClear
11:35 PM28.4 °F21.2 °F74 %29.99 in10.0 miWSW (250°)8.1 mphClear
11:55 PM28.4 °F21.2 °F74 %29.99 in10.0 miWSW (250°)10.4 mphClear
Hourly data recorded from KLBL, located miles away from Hugoton, Kansas







STORIES FROM OUR PARTNERS